Theta_e
315 317 320 323 325 323 323 324 321 325 343 345 336 337 337 336 337 337 337 337 322 318 323 333 332 335 334 332 333 332 329 328 326 325 325 324 324 325 325 325 325 325 325 324 323 323 323 324 324
316 319 321 321 322 319 319 320 325 323 322 334 343 343 340 341 336 340 338 337 321 319 320 326 330 334 335 333 334 333 330 329 328 326 325 324 324 324 324 324 325 325 325 324 323 323 322 322 323
319 320 320 322 320 319 320 320 322 321 319 320 336 345 343 343 341 340 338 332 320 319 321 325 329 331 334 334 335 334 331 329 330 326 325 324 323 322 323 323 324 325 325 325 324 323 323 323 323
319 319 317 321 320 321 320 322 320 319 320 321 338 334 346 343 343 342 336 323 320 319 321 323 325 328 334 335 335 334 332 330 331 328 324 323 322 322 322 323 323 324 325 324 325 325 325 326 327
319 318 318 318 319 319 319 319 318 319 319 325 339 340 347 345 342 339 331 321 320 320 323 328 329 331 334 335 334 334 331 330 330 330 324 323 322 322 322 323 323 324 325 326 327 328 328 329 330
318 315 318 317 316 316 316 316 317 318 320 342 346 347 347 344 341 338 326 322 321 320 321 323 324 325 329 332 332 331 330 330 329 329 325 323 323 323 324 325 325 326 327 327 329 329 330 331 331
318 318 317 316 317 317 318 317 318 318 321 333 345 349 346 345 342 338 325 322 321 320 319 318 317 317 318 320 324 328 328 330 328 328 325 324 324 325 325 326 327 328 329 329 331 331 332 332 331
318 318 317 317 319 319 317 316 317 317 321 333 344 341 340 343 344 339 326 324 323 322 321 320 320 320 320 322 324 325 326 328 328 327 326 325 325 326 326 328 328 329 331 332 332 333 332 331 329
316 317 318 318 318 318 316 317 316 317 322 338 339 339 339 343 344 342 332 326 325 325 324 324 324 323 321 322 323 324 325 327 327 327 326 326 326 327 328 329 330 331 332 333 333 332 330 327 325
315 315 316 315 316 317 315 315 316 317 318 322 329 332 329 341 344 343 338 330 326 326 326 326 326 326 324 323 323 323 324 325 326 326 326 327 328 329 330 331 332 333 333 333 332 329 326 323 320
312 317 314 314 314 314 315 317 316 317 318 318 323 323 324 330 336 344 341 337 329 328 328 327 328 328 328 326 325 325 325 325 326 327 328 328 329 331 332 333 333 334 333 331 329 325 322 320 318
316 314 313 314 314 315 317 317 317 317 319 318 318 323 321 324 327 336 342 339 334 330 328 328 329 329 329 329 328 328 327 327 328 329 329 330 331 332 333 333 332 331 329 327 325 320 317 315 314
318 317 316 317 317 317 316 317 318 318 321 318 317 317 318 319 325 335 342 338 334 332 330 330 329 329 330 330 330 330 330 329 330 330 331 332 333 333 333 331 326 321 321 319 318 316 313 312 310
317 316 318 318 319 318 318 319 315 318 319 317 317 317 319 320 321 331 339 341 337 333 334 333 330 330 330 331 331 331 331 331 331 332 332 333 333 333 332 326 321 319 316 317 316 312 310 307 306
318 318 318 317 318 319 316 316 316 319 316 319 320 321 324 322 325 327 323 335 343 342 339 338 333 331 331 331 331 332 331 331 332 332 333 333 333 332 329 323 319 318 317 316 313 309 306 306 306
318 317 318 318 317 318 318 323 321 317 317 319 319 319 319 320 324 326 334 339 344 343 343 341 334 332 332 333 333 332 332 332 333 334 333 333 333 332 327 323 321 319 318 316 311 306 306 306 306
318 316 318 319 319 319 317 321 318 319 320 318 320 318 320 319 325 326 335 338 342 344 344 342 340 340 340 339 336 333 333 333 334 334 334 335 333 330 326 325 324 323 319 315 308 306 306 306 306
318 319 318 319 320 317 319 321 321 318 318 318 319 318 320 319 319 329 335 339 341 343 343 343 342 341 340 340 335 334 334 334 334 334 335 334 331 328 326 326 326 324 318 312 306 306 306 305 305
317 318 320 317 317 319 322 321 319 318 318 319 318 318 318 317 318 327 333 337 340 342 343 343 342 340 339 338 335 335 334 333 335 334 332 331 330 326 324 325 326 322 315 308 305 306 305 305 306
317 318 318 319 319 318 319 320 319 319 319 319 319 318 319 320 319 321 331 336 339 341 342 342 343 341 340 337 335 334 333 333 333 332 331 330 327 324 323 324 323 318 311 306 305 305 305 306 307
317 318 319 319 319 318 318 322 322 319 317 316 317 319 320 320 321 321 320 331 339 341 342 342 343 341 338 337 335 334 334 333 332 330 329 327 323 321 321 321 318 312 307 305 305 304 304 306 308
321 319 319 321 320 323 320 327 323 322 322 318 319 320 320 321 321 321 321 320 329 339 340 342 339 341 338 337 335 334 333 333 331 329 329 327 324 318 315 313 311 307 305 305 304 304 304 304 306
321 318 319 318 319 319 322 323 325 321 322 323 321 320 320 321 323 323 319 319 322 335 340 340 337 337 337 334 333 334 333 332 330 329 327 324 324 323 314 311 307 305 304 304 303 303 303 302 302
317 318 320 320 321 326 324 324 325 324 323 322 320 319 320 321 324 325 325 327 328 331 334 336 335 334 332 332 329 329 329 326 321 317 314 318 309 307 308 307 305 304 304 303 302 302 302 301 302
318 321 324 327 326 327 323 324 325 322 320 320 321 320 320 322 324 324 324 326 326 328 330 330 328 328 327 325 322 321 319 318 315 313 311 308 306 305 305 305 305 304 303 302 302 302 302 305 304
319 321 325 328 328 325 320 326 325 318 317 318 318 319 320 319 321 322 323 324 325 325 326 325 323 322 319 318 317 316 314 313 312 312 311 310 310 309 305 304 304 304 304 305 304 303 305 301 299
321 322 321 324 321 326 324 322 319 318 319 319 319 320 319 318 319 320 322 323 324 322 323 320 318 315 315 314 315 315 315 314 314 314 311 311 312 311 308 305 305 304 303 303 303 301 299 299 300
320 320 323 324 328 328 325 325 325 321 322 320 320 321 319 319 320 322 323 322 320 317 317 316 313 313 313 314 314 313 313 313 311 311 313 312 309 309 307 304 303 301 300 299 298 298 297 297 296
321 323 322 323 325 326 325 324 319 321 321 322 321 320 320 320 320 321 322 320 318 316 315 314 314 313 313 313 313 313 313 314 314 314 313 311 309 309 307 305 302 300 298 296 295 295 294 295 296
320 322 323 326 326 323 325 325 316 317 320 320 319 319 320 319 320 319 320 319 317 316 315 315 315 314 314 314 314 314 314 315 315 314 313 311 310 309 306 304 302 301 302 301 301 300 299 295 294
Wind_Speed
6 4 2 0 2 1 1 1 3 6 1 2 6 4 6 3 5 1 3 15 27 35 36 34 31 28 25 24 20 17 17 18 19 20 20 19 17 16 15 13 12 11 11 10 10 9 9 10 10
4 2 1 2 1 1 2 2 3 5 9 9 8 6 5 5 14 7 4 19 32 33 34 34 31 28 27 25 22 19 19 19 18 17 18 17 16 15 13 11 11 10 10 10 10 9 8 8 8
4 1 1 3 2 1 2 3 4 10 16 5 3 7 3 2 8 6 5 22 35 32 32 32 30 28 27 26 23 21 20 20 19 17 17 16 15 14 12 11 10 10 9 9 9 8 7 6 6
2 0 4 1 3 4 3 3 3 10 6 6 4 7 4 5 3 7 10 27 33 31 30 30 30 29 28 27 25 23 22 21 19 18 17 16 15 14 13 12 11 10 9 8 7 7 6 5 5
3 2 1 0 2 4 4 6 5 7 6 7 2 3 3 5 7 7 21 32 33 32 30 29 29 28 29 28 27 24 23 22 21 18 16 16 15 14 13 12 11 9 8 6 5 5 4 3 3
1 2 1 3 3 4 5 5 3 5 5 8 3 5 4 5 4 11 27 34 32 30 30 29 28 28 28 28 27 26 24 23 22 20 18 16 15 14 13 12 10 8 7 6 5 4 3 3 2
3 2 3 3 3 4 5 2 2 5 6 4 4 3 4 5 9 12 27 32 31 30 30 30 30 28 27 27 27 26 25 24 23 21 19 17 16 14 12 11 10 9 8 8 6 5 4 4 3
3 2 2 4 3 4 1 6 2 8 4 3 2 3 3 9 8 13 27 31 31 30 30 30 30 29 28 27 26 25 25 24 23 21 19 18 16 14 13 11 10 9 9 8 7 6 5 4 4
5 2 4 4 4 1 2 9 5 8 5 5 6 12 12 12 7 16 27 32 33 33 32 31 31 30 29 27 27 25 24 24 23 21 20 18 17 15 13 12 11 10 9 8 7 6 6 5 5
3 2 6 3 3 4 6 4 12 9 9 10 13 17 17 15 12 23 32 38 38 37 35 33 32 31 30 29 28 28 26 26 25 24 21 19 17 15 13 12 12 11 10 9 9 8 8 7 6
4 5 3 4 9 6 4 7 5 13 9 7 8 13 19 15 16 25 32 39 42 38 37 35 33 32 31 31 30 29 28 27 26 24 22 21 18 16 14 12 12 11 11 11 10 9 7 6 4
4 8 7 4 5 3 5 11 8 19 29 22 18 10 13 18 21 23 34 39 42 42 38 36 35 33 32 31 31 30 29 28 26 25 23 21 18 16 14 13 12 11 11 10 9 7 6 5 4
5 4 8 18 18 15 10 14 16 29 33 26 25 28 26 25 24 25 32 37 41 42 41 38 36 36 34 33 33 33 32 30 27 25 24 22 19 17 15 13 12 11 10 9 8 8 7 6 4
2 8 15 15 17 16 14 14 5 18 18 14 15 18 22 26 23 26 32 40 43 42 41 39 38 36 35 36 35 33 31 29 27 27 25 23 20 18 15 13 13 12 11 10 8 8 7 6 5
5 9 11 12 12 6 2 5 9 18 9 17 14 16 21 27 29 33 29 36 44 43 41 39 38 36 38 38 37 34 31 30 30 28 26 24 22 20 17 15 14 13 12 11 10 9 8 7 6
4 4 6 1 3 3 5 16 11 8 11 22 21 17 17 25 33 36 36 36 41 42 42 39 37 39 40 40 37 34 32 31 30 29 27 26 24 22 20 18 16 14 13 12 12 11 10 8 7
3 11 6 5 6 3 6 12 7 17 25 21 24 17 21 21 23 34 37 36 37 40 39 38 37 37 39 36 35 35 32 31 30 28 27 25 24 22 21 20 18 16 14 13 12 12 11 9 8
11 7 4 8 1 3 11 23 19 20 22 21 24 22 19 17 21 23 32 33 35 37 38 37 36 36 33 30 33 34 33 33 31 30 30 27 25 23 23 22 20 17 16 15 14 13 12 10 10
6 6 9 3 6 9 20 25 21 22 21 24 25 15 11 11 13 16 26 32 34 34 38 39 38 35 32 34 37 36 35 35 34 33 29 26 25 24 23 23 20 18 17 17 16 15 14 15 14
18 18 17 14 15 9 15 24 24 22 22 26 21 10 7 6 6 10 18 27 33 34 37 39 38 36 34 35 39 39 40 38 36 33 30 27 25 24 23 23 21 19 19 19 18 18 18 17 19
17 18 13 15 9 12 15 24 10 7 12 12 5 5 4 6 9 10 16 25 28 32 36 39 40 38 34 38 40 42 38 36 35 32 28 26 24 23 23 22 20 20 19 19 18 18 17 18 20
16 12 17 15 9 9 5 14 14 11 11 7 5 3 4 7 8 10 13 18 26 30 30 34 38 37 38 39 40 40 38 38 35 29 24 24 24 24 20 20 20 19 19 19 19 19 18 18 19
11 7 12 11 8 8 11 7 7 2 8 12 8 1 3 4 6 6 2 12 15 21 27 32 33 38 39 41 41 41 40 37 29 25 27 28 30 27 21 19 20 20 19 19 19 18 18 18 17
3 3 1 1 4 10 14 13 13 6 12 4 3 5 5 6 8 9 7 3 4 10 18 24 28 30 34 36 36 37 35 31 23 24 22 21 12 13 17 19 18 18 16 16 16 15 15 14 13
13 7 3 3 5 8 4 12 17 7 5 4 3 3 4 6 8 8 7 7 5 5 7 9 13 20 22 23 20 16 10 1 2 3 2 2 5 9 15 12 12 11 11 10 11 11 13 16 17
16 14 6 6 6 4 1 9 4 1 4 7 6 5 5 7 8 8 9 10 10 9 8 7 7 13 17 17 14 10 9 11 10 10 3 3 2 5 12 7 7 10 12 15 17 17 18 21 16
7 13 11 5 2 6 8 11 6 5 4 7 8 8 7 7 11 11 12 11 14 19 19 25 18 12 9 10 10 7 7 6 4 8 10 9 13 13 8 10 11 12 15 17 19 18 17 17 17
14 7 4 3 5 9 10 11 11 9 10 9 9 12 10 10 12 13 17 23 21 21 21 16 12 13 16 16 15 13 11 13 13 17 16 15 15 8 8 11 11 14 14 14 16 16 17 17 15
9 15 4 3 6 6 9 10 4 12 14 15 12 14 15 14 16 18 25 20 20 17 17 13 13 13 16 15 16 13 11 12 15 12 14 14 14 9 10 9 11 11 9 10 11 11 13 12 14
11 14 23 8 10 5 12 16 1 6 13 17 17 18 17 16 19 20 22 20 20 19 17 14 13 13 14 13 12 12 12 13 12 11 13 15 12 10 10 11 11 12 14 16 18 19 18 18 16
Wind_Direction
325 333 352 3 237 341 276 176 298 21 322 206 145 176 190 169 204 243 262 179 182 179 178 181 182 178 176 173 174 174 168 159 157 158 160 159 157 154 153 150 145 141 136 129 122 114 106 102 97
329 341 66 95 131 17 36 240 244 309 308 286 224 217 219 227 222 266 222 177 179 177 176 181 182 180 179 177 180 179 174 169 166 166 163 159 158 158 154 150 148 145 141 137 132 126 118 113 108
343 345 176 94 112 149 313 194 274 304 316 250 242 225 234 221 218 228 216 173 172 177 178 180 181 183 183 181 184 184 180 178 176 172 169 164 162 160 156 156 155 153 151 149 143 131 119 111 104
335 95 61 206 208 237 225 296 235 315 12 43 283 261 259 218 269 225 188 168 170 177 178 179 183 186 184 185 190 190 185 184 182 177 175 170 167 165 165 165 165 163 161 161 151 138 133 129 120
319 83 62 295 254 276 249 278 297 334 323 325 273 302 261 281 240 215 179 169 175 177 177 178 183 185 187 190 192 192 190 188 186 184 181 176 174 172 173 175 177 176 172 175 166 161 163 160 152
72 81 177 251 210 253 259 244 278 345 328 326 305 275 255 270 180 196 179 174 177 181 178 179 184 188 191 194 194 193 193 191 190 188 186 186 184 182 182 184 187 188 191 200 205 206 218 221 225
147 142 219 263 259 259 195 126 206 329 317 348 283 270 284 281 207 189 182 179 181 183 181 181 184 187 191 193 194 194 195 194 194 193 191 190 190 190 195 197 197 202 210 221 232 244 256 267 273
157 117 178 224 232 272 192 355 321 310 296 299 277 273 311 337 227 186 187 187 187 188 189 189 187 187 188 190 193 195 198 197 199 197 197 196 196 199 203 208 211 220 226 228 233 241 252 263 268
162 160 224 235 183 246 26 358 332 311 273 234 244 269 284 287 240 197 193 194 194 195 194 195 192 191 190 192 193 197 198 200 200 201 203 202 205 205 211 217 225 229 233 233 234 239 250 257 258
170 209 228 201 208 276 329 18 322 318 290 259 259 258 280 270 243 212 202 201 200 199 198 199 198 195 193 196 197 198 199 200 203 204 206 209 211 212 220 227 230 230 229 229 232 237 243 242 240
173 232 211 228 234 279 307 301 328 290 276 231 270 262 273 245 243 223 214 209 205 203 203 202 203 200 199 201 203 203 203 203 205 208 211 214 216 220 225 228 229 229 226 225 227 234 236 245 241
255 249 245 239 165 300 279 295 283 265 268 275 278 256 273 254 241 237 220 214 209 208 209 210 208 206 207 207 208 209 208 209 209 211 214 218 221 225 227 225 226 228 228 230 234 233 239 235 230
239 266 276 279 287 284 274 257 263 271 285 282 277 268 262 247 244 238 227 219 214 213 212 215 214 211 210 211 213 213 214 214 216 215 218 221 223 224 225 229 228 226 225 224 233 234 225 221 218
301 285 285 285 286 286 271 274 212 264 283 305 307 284 258 246 242 237 229 225 220 217 218 219 217 215 216 217 218 220 219 219 218 219 220 222 222 224 226 226 222 222 221 228 231 231 229 222 221
275 287 287 258 259 241 205 217 232 273 288 319 306 292 267 254 242 238 244 234 229 224 221 224 221 220 222 221 222 222 222 221 221 221 220 221 222 224 226 221 220 223 223 229 227 223 221 224 225
281 223 267 350 187 260 170 277 263 288 317 307 307 313 282 272 246 244 241 235 228 224 224 224 220 221 223 225 225 223 222 222 223 222 222 220 222 225 223 220 223 227 231 229 223 219 218 216 214
225 262 229 311 258 272 217 289 257 306 308 292 297 299 307 289 249 241 241 239 234 231 230 227 222 224 229 231 225 221 223 221 222 221 224 225 226 227 226 224 224 230 234 229 223 219 218 219 208
235 233 227 252 214 246 274 278 285 280 287 281 286 296 300 279 262 245 239 239 237 235 237 235 232 232 233 228 221 219 218 218 219 221 222 225 228 229 228 229 229 231 228 223 220 216 216 210 203
271 247 260 240 265 293 282 283 287 283 279 279 279 280 278 278 277 248 243 245 242 239 240 239 232 232 230 220 214 214 217 218 216 218 221 224 228 229 230 230 232 232 227 221 214 211 210 200 192
247 264 270 278 267 261 282 277 280 269 261 255 258 234 247 261 262 240 238 245 243 240 242 241 237 235 227 223 217 220 220 219 219 220 218 218 228 229 229 231 233 231 227 220 214 211 204 201 190
237 244 257 261 295 269 292 286 262 267 250 250 167 200 233 271 267 248 235 234 244 242 240 241 237 240 233 224 220 220 218 215 219 219 216 223 227 230 233 234 231 226 223 221 217 212 209 205 198
247 217 244 259 270 284 3 295 273 262 246 192 169 190 269 287 282 278 252 237 234 239 240 232 237 237 229 227 225 228 227 221 226 227 226 231 234 231 230 233 229 225 219 219 216 215 212 211 214
254 188 218 240 250 289 255 259 283 199 246 240 201 155 36 4 16 16 311 221 221 219 218 222 227 223 225 218 219 216 216 222 220 218 226 250 241 231 225 230 230 224 217 216 217 216 216 219 225
160 185 81 239 260 264 240 216 285 268 261 265 90 48 31 44 61 67 78 85 164 207 216 224 219 221 220 218 217 213 210 209 214 209 211 205 204 229 220 220 222 222 221 221 220 222 221 221 228
196 187 243 238 216 257 292 214 252 315 2 8 110 96 86 77 79 75 87 102 127 180 209 210 211 207 213 218 213 208 194 166 29 14 148 267 153 234 247 221 224 237 238 240 235 237 243 263 243
194 186 190 222 214 275 253 240 248 110 94 92 99 113 107 97 105 110 120 127 136 141 144 149 152 133 116 114 117 115 103 90 86 85 45 121 160 205 242 241 230 241 253 253 250 244 254 239 232
182 215 213 264 234 285 245 259 240 164 139 132 131 127 119 118 126 130 129 125 128 116 117 116 115 117 125 129 138 145 158 161 151 168 193 198 212 191 219 230 222 232 238 244 241 240 238 243 243
216 177 170 187 222 238 250 256 239 192 186 173 162 157 158 154 149 143 138 138 138 137 137 129 117 126 135 141 148 151 149 152 180 162 187 205 228 216 213 228 237 236 235 233 240 235 234 233 229
204 230 229 185 228 243 260 251 184 213 186 179 171 169 173 172 165 157 156 154 157 157 150 142 140 144 145 143 156 165 170 180 205 206 219 225 239 244 233 231 229 233 234 238 245 245 238 240 246
216 227 207 210 209 224 254 261 142 226 185 176 175 177 185 184 181 174 174 177 178 178 176 167 160 162 158 172 182 187 195 208 218 227 231 232 241 245 236 228 230 252 265 266 254 241 246 240 232